Location: Lane
(33.5226°N, 79.8788°W)
Time: 20:14:44
(UTC+00:00)

Courier 1B Rocket - Pass Details

Date: 11 October 2022
Orbit: 920 x 1202 km, 28.3° (Epoch: 01 December)

Event Time Altitude Azimuth Distance (km) Brightness Sun altitude
Rises 20:15:11 0° 238° (WSW) 4,075 9.5 29.4°
Reaches altitude 10° 20:18:14 10° 232° (SW) 3,094 9.3 28.9°
Maximum altitude 20:25:22 42° 164° (SSE) 1,570 6.6 27.7°
Drops below altitude 10° 20:32:07 10° 96° (E) 2,938 7.1 26.4°
Sets 20:34:56 0° 90° (E) 3,852 7.6 25.9°
